Weather History for KSUS - September, 2013

Change the Weather History Date:

Thursday, September 26, 2013

  Actual Average Record
Temperature  
Mean Temperature 70 °F -  
Max Temperature 84 °F 74 °F 89 °F (1998)
Min Temperature 57 °F 48 °F 37 °F (2001)
Cooling Degree Days 6    
Growing Degree Days 20 (Base 50)    
Moisture  
Dew Point 59 °F    
Average Humidity 84    
Maximum Humidity 100    
Minimum Humidity 41    
Precipitation  
Precipitation 0.00 in - - ()
Sea Level Pressure  
Sea Level Pressure 29.93 in    
Wind  
Wind Speed 1 mph (ESE)    
Max Wind Speed 10 mph    
Max Gust Speed 17 mph    
Visibility 4 miles    
Events Fog    
Averages and records for this station are not official NWS values.
T = Trace of Precipitation, MM = Missing Value Source: NWS Daily Summary

Daily Weather History Graph

Daily Weather History Graph

Search for Another Location

Airport or City:

Trip Planner

Search our weather history database for the weather conditions in past years. The results will help you decide how hot, cold, wet, or windy it might be!

Date:

Astronomy

Sep. 26, 2013 Rise Set
Actual Time 6:54 AM CDT 6:52 PM CDT
Civil Twilight 6:27 AM CDT 7:19 PM CDT
Nautical Twilight 5:56 AM CDT 7:50 PM CDT
Astronomical Twilight 5:25 AM CDT 8:21 PM CDT
Moon 11:54 PM CDT (9/26) 1:43 PM CDT (9/26)
Length of Visible Light 12h 51m
Length of Day
11h 58m
Waning Gibbous, 54% of the Moon is Illuminated
Sep 26
Waning Gibbous
Sep 26
Last Quarter
Oct 4
New
Oct 11
First Quarter
Oct 18
Full

Hourly Weather History & Observations

Time (CDT) Temp. Heat Index Dew Point Humidity Pressure Visibility Wind Dir Wind Speed Gust Speed Precip Events Conditions
12:07 AM 62.6 °F - 60.8 °F 94% 29.87 in 0.5 mi Calm Calm - N/A Fog Fog
12:17 AM 60.8 °F - 60.8 °F 100% 29.87 in 1.0 mi Calm Calm - N/A   Mist
12:28 AM 62.6 °F - 60.8 °F 94% 29.87 in 0.5 mi Calm Calm - N/A Fog Fog
12:51 AM 60.8 °F - 60.8 °F 100% 29.87 in 1.0 mi Calm Calm - N/A   Clear
12:54 AM 61.0 °F - 60.1 °F 97% 29.86 in 1.0 mi Calm Calm - N/A   Clear
1:05 AM 62.6 °F - 60.8 °F 94% 29.87 in 0.5 mi Calm Calm - N/A Fog Fog
1:12 AM 60.8 °F - 60.8 °F 100% 29.87 in 2.0 mi Calm Calm - N/A   Clear
1:25 AM 60.8 °F - 60.8 °F 100% 29.88 in 1.5 mi Calm Calm - N/A   Clear
1:36 AM 59.0 °F - 57.2 °F 94% 29.88 in 0.8 mi Calm Calm - N/A   Clear
1:54 AM 60.1 °F - 59.0 °F 96% 29.87 in 0.2 mi Calm Calm - N/A Fog Fog
2:54 AM 59.0 °F - 59.0 °F 100% 29.88 in 0.5 mi Calm Calm - N/A Fog Fog
2:58 AM 60.8 °F - 59.0 °F 94% 29.90 in 0.2 mi Calm Calm - N/A Fog Fog
3:15 AM 59.0 °F - 57.2 °F 94% 29.90 in 0.8 mi Calm Calm - N/A   Mist
3:26 AM 60.8 °F - 59.0 °F 94% 29.90 in 0.2 mi Calm Calm - N/A Fog Fog
3:54 AM 59.0 °F - 57.9 °F 96% 29.89 in 0.2 mi Calm Calm - N/A Fog Fog
4:23 AM 59.0 °F - 57.2 °F 94% 29.91 in 0.5 mi Calm Calm - N/A Fog Fog
4:40 AM 57.2 °F - 57.2 °F 100% 29.92 in 0.2 mi Calm Calm - N/A Fog Fog
4:54 AM 57.9 °F - 57.9 °F 100% 29.91 in 0.2 mi Calm Calm - N/A Fog Fog
5:17 AM 57.2 °F - 57.2 °F 100% 29.92 in 0.2 mi Calm Calm - N/A Fog Fog
5:42 AM 57.2 °F - 57.2 °F 100% 29.93 in 0.2 mi Calm Calm - N/A Fog Fog
5:48 AM 57.2 °F - 57.2 °F 100% 29.93 in 2.0 mi Calm Calm - N/A   Overcast
5:49 AM 57.9 °F - 57.0 °F 97% 29.91 in 2.0 mi Calm Calm - N/A   Overcast
5:56 AM 57.2 °F - 57.2 °F 100% 29.94 in 1.0 mi Calm Calm - N/A   Mist
6:14 AM 57.2 °F - 57.2 °F 100% 29.94 in 1.0 mi Calm Calm - N/A   Mist
6:28 AM 57.2 °F - 57.2 °F 100% 29.95 in 1.0 mi Calm Calm - N/A   Mist
6:45 AM 57.2 °F - 55.4 °F 94% 29.96 in 0.2 mi Calm Calm - N/A Fog Fog
6:54 AM 57.0 °F - 57.0 °F 100% 29.95 in 0.2 mi Calm Calm - N/A Fog Fog
7:10 AM 57.2 °F - 57.2 °F 100% 29.97 in 0.2 mi Calm Calm - N/A Fog Fog
7:32 AM 57.2 °F - 57.2 °F 100% 29.97 in 0.5 mi Calm Calm - N/A Fog Fog
7:36 AM 59.0 °F - 57.2 °F 94% 29.98 in 1.5 mi Calm Calm - N/A   Partly Cloudy
7:43 AM 59.0 °F - 59.0 °F 100% 29.98 in 4.0 mi Calm Calm - N/A   Clear
7:54 AM 60.1 °F - 59.0 °F 96% 29.97 in 6.0 mi Calm Calm - N/A   Clear
8:54 AM 66.9 °F - 63.0 °F 87% 29.98 in 7.0 mi Calm Calm - N/A   Clear
9:54 AM 73.9 °F - 64.9 °F 73% 29.99 in 8.0 mi Calm Calm - N/A   Clear
10:54 AM 78.1 °F - 63.0 °F 60% 29.98 in 10.0 mi SE 6.9 mph - N/A   Partly Cloudy
11:54 AM 81.0 °F 81.9 °F 62.1 °F 52% 29.98 in 10.0 mi SE 6.9 mph - N/A   Partly Cloudy
12:54 PM 82.9 °F 83.7 °F 62.1 °F 49% 29.97 in 10.0 mi East 10.4 mph - N/A   Partly Cloudy
1:54 PM 82.9 °F 83.2 °F 60.1 °F 46% 29.95 in 10.0 mi ESE 6.9 mph 17.3 mph N/A   Scattered Clouds
2:54 PM 84.0 °F 83.5 °F 57.9 °F 41% 29.94 in 10.0 mi East 5.8 mph - N/A   Scattered Clouds
3:54 PM 84.0 °F 83.8 °F 59.0 °F 43% 29.93 in 10.0 mi ESE 5.8 mph - N/A   Scattered Clouds
4:54 PM 84.0 °F 83.8 °F 59.0 °F 43% 29.93 in 10.0 mi East 6.9 mph - N/A   Scattered Clouds
5:54 PM 81.0 °F 81.6 °F 60.1 °F 49% 29.94 in 10.0 mi East 4.6 mph - N/A   Partly Cloudy
6:54 PM 77.0 °F - 59.0 °F 54% 29.94 in 10.0 mi ESE 4.6 mph - N/A   Partly Cloudy
7:54 PM 73.9 °F - 59.0 °F 59% 29.95 in 10.0 mi ESE 4.6 mph - N/A   Clear
8:54 PM 69.1 °F - 60.1 °F 73% 29.97 in 10.0 mi Calm Calm - N/A   Clear
9:54 PM 66.9 °F - 59.0 °F 76% 29.98 in 10.0 mi Calm Calm - N/A   Clear
10:54 PM 70.0 °F - 57.0 °F 63% 29.98 in 10.0 mi Calm Calm - N/A   Clear
11:54 PM 69.1 °F - 57.0 °F 65% 29.99 in 10.0 mi SE 3.5 mph - N/A   Clear